Concordia, KS

8:49 PM CST on November 24, 2017 (GMT -0600)
Blosser Municipal

Weather History for KCNK - May, 2014

Change the Weather History Date:

Monday, May 26, 2014

  Actual Average Record
Temperature  
Mean Temperature 74 °F 66 °F  
Max Temperature 85 °F 77 °F 98 °F (2012)
Min Temperature 62 °F 55 °F 40 °F (1940)
Degree Days  
Heating Degree Days 0 2  
Month to date heating degree days 131 121  
Since 1 July heating degree days 5758 5385  
Cooling Degree Days 9 4  
Month to date cooling degree days 101 50  
Year to date cooling degree days 126 67  
Growing Degree Days 23 (Base 50)    
Moisture  
Dew Point 63 °F    
Average Humidity 72    
Maximum Humidity 100    
Minimum Humidity 44    
Precipitation  
Precipitation 0.00 in 0.14 in 2.66 in (1996)
Month to date precipitation 3.12 3.44  
Year to date precipitation 5.83 9.27  
Snow  
Snow 0.00 in 0.00 in T in (1955)
Month to date snowfall 0.0 0.0  
Year to date snowfall 16.9 13.7  
Since 1 July snowfall 23.2 20.2  
Snow Depth 0.00 in    
Sea Level Pressure  
Sea Level Pressure 29.91 in    
Wind  
Wind Speed 11 mph (South)    
Max Wind Speed 22 mph    
Max Gust Speed 27 mph    
Visibility 10 miles    
Events      
T = Trace of Precipitation, MM = Missing Value Source: NWS Daily Summary

Daily Weather History Graph

Daily Weather History Graph

Search for Another Location

Airport or City:

Trip Planner

Search our weather history database for the weather conditions in past years. The results will help you decide how hot, cold, wet, or windy it might be!

Date:

Astronomy

May. 26, 2014 Rise Set
Actual Time 6:08 AM CDT 8:47 PM CDT
Civil Twilight 5:36 AM CDT 9:19 PM CDT
Nautical Twilight 4:57 AM CDT 9:58 PM CDT
Astronomical Twilight 4:13 AM CDT 10:42 PM CDT
Moon 4:50 AM CDT (5/26) 6:52 PM CDT (5/26)
Length of Visible Light 15h 42m
Length of Day
14h 39m
Waning Crescent, 5% of the Moon is Illuminated
May 26
Waning Crescent
May 28
New
Jun 5
First Quarter
Jun 12
Full
Jun 19
Last Quarter

Hourly Weather History & Observations

Time (CDT) Temp. Heat Index Dew Point Humidity Pressure Visibility Wind Dir Wind Speed Gust Speed Precip Events Conditions
12:55 AM 66.9 °F - 64.9 °F 93% 29.91 in 10.0 mi South 16.1 mph - N/A   Clear
1:55 AM 66.9 °F - 64.9 °F 93% 29.91 in 10.0 mi South 10.4 mph - N/A   Clear
2:55 AM 66.0 °F - 64.0 °F 93% 29.91 in 10.0 mi SSE 5.8 mph - N/A   Clear
3:55 AM 64.0 °F - 62.1 °F 93% 29.91 in 10.0 mi South 9.2 mph - N/A   Clear
4:55 AM 63.0 °F - 62.1 °F 97% 29.92 in 10.0 mi South 10.4 mph - N/A   Clear
5:55 AM 63.0 °F - 62.1 °F 97% 29.93 in 10.0 mi South 11.5 mph - N/A   Clear
6:55 AM 62.1 °F - 62.1 °F 100% 29.95 in 10.0 mi South 4.6 mph - N/A   Clear
7:55 AM 66.9 °F - 64.0 °F 90% 29.96 in 10.0 mi SW 5.8 mph - N/A   Clear
8:55 AM 71.1 °F - 64.0 °F 78% 29.95 in 10.0 mi South 3.5 mph - N/A   Clear
9:55 AM 73.9 °F - 62.1 °F 66% 29.95 in 10.0 mi SSW 4.6 mph - N/A   Clear
10:55 AM 78.1 °F - 62.1 °F 58% 29.95 in 10.0 mi South 5.8 mph - N/A   Clear
11:55 AM 80.1 °F 81.2 °F 62.1 °F 54% 29.95 in 10.0 mi South 9.2 mph - N/A   Clear
12:55 PM 82.0 °F 82.4 °F 60.1 °F 47% 29.93 in 10.0 mi SE 11.5 mph - N/A   Clear
1:55 PM 84.0 °F 84.0 °F 60.1 °F 44% 29.91 in 10.0 mi South 15.0 mph 25.3 mph N/A   Clear
2:55 PM 84.0 °F 84.0 °F 60.1 °F 44% 29.88 in 10.0 mi SSE 19.6 mph - N/A   Partly Cloudy
3:55 PM 82.9 °F 83.7 °F 62.1 °F 49% 29.87 in 10.0 mi SSE 17.3 mph 26.5 mph N/A   Scattered Clouds
4:55 PM 81.0 °F 81.9 °F 62.1 °F 52% 29.86 in 10.0 mi South 15.0 mph - N/A   Clear
5:55 PM 80.1 °F 81.5 °F 63.0 °F 56% 29.86 in 10.0 mi SSE 12.7 mph - N/A   Clear
6:55 PM 79.0 °F - 64.0 °F 60% 29.87 in 10.0 mi South 12.7 mph 19.6 mph N/A   Clear
7:55 PM 77.0 °F - 62.1 °F 60% 29.88 in 10.0 mi South 10.4 mph - N/A   Clear
8:55 PM 73.9 °F - 62.1 °F 66% 29.89 in 10.0 mi South 9.2 mph - N/A   Clear
9:55 PM 73.0 °F - 63.0 °F 71% 29.92 in 10.0 mi South 10.4 mph - N/A   Clear
10:55 PM 71.1 °F - 64.0 °F 78% 29.92 in 10.0 mi South 12.7 mph - N/A   Clear
11:55 PM 70.0 °F - 61.0 °F 73% 29.91 in 10.0 mi South 13.8 mph - N/A   Clear